Showing default

NORSAT 4, 62702

Orbit data source: Space-Track

NORSAT 4, 62702 is a payload satellite owned by NSC (NO) in SSO that was launched on Tue, 14 Jan 2025 UTC via an FALCON 9 launch vehicle from the Air Force Western Test Range (AFWTR). Payload-class satellites include a variety of spacecraft equipped with specific instruments for various scientific and technological missions. These include communications satellites like Starlink; space stations such as the ISS; scientific satellites like the Hubble; Earth observation satellites from companies like Planet Labs, Umbra, and HawkEye 360; GPS; miniature CubeSats for education and research; and military/defense satellites.

Loading next visibility...
Identifier
62702, 2025-009CX
Orbit
SSO
Country
Flag of NONO / NOR
Related business
Manufacturer
UTIAS-SFL
Mission
Operational Civil Com/Tech
Bus & Motor
DEFIANT, Unknown motor
Mass
35 kg wet, 35 kg dry
Launch date (UTC)
2025-01-14 (9 months ago)
Launch vehicle
FALCON 9
Launch site
Air Force Western Test Range (AFWTR)
Object type
Payload
Rocket body
Debris
Shape & HBR
Box, 0.6 m
Radar Cross Section
0.165 m², Medium (>0.1 m² and < 1m²)

Expand to show TLE details & history
Last TLE update: 11 hours ago

TLE from 11 hours ago
0 NORSAT 4
1 62702U 25009CX  25293.21148545  .00005055  00000-0  48328-3 0  9997
2 62702  97.7275  11.0521 0002886 109.2975 250.8557 14.93678019 41525
Epoch: 2025-10-20T05:04Z
TLE epoch observation values (Epoch: 2025-10-20T05:04:32.342Z)
Latitude
-0.00007°
Longitude
-93.9997°
Altitude
590.184 km
Speed
7.565 km/s
True Right ascension
00h 44m 12s
True Declination
0° 00' 00"
Sunlit
Object was in full shadow at epoch
Visualization orbit readout
Latitude
Unknown
Longitude
Unknown
Altitude
Unknown
Speed
Unknown
Apparent Right ascension
Unknown
Apparent Declination
Unknown
Sunlit
N/A
Visualization observer readout
Local Sidereal Time
10:56:16
Azimuth
Unknown
Elevation
Unknown
Doppler factor
Unknown
Orbital elements
Apogee altitude
585.503 km
Perigee altitude
581.485 km
Semi-major axis
6,961.631 km
Eccentricity
0.00029
Inclination
97.7275°
RAAN
11.0521°
Arg. of periapsis
109.2975°
True anomaly
250.82446°
Mean anomaly
250.8557°
Eccentric anomaly
250.84008°
Mean motion
3.7366 °/min
Orbital period
96.34 mins
BSTAR
0.00048328
Loading maneuver chart data...
Computing Atmospheric mass density...
Loading historical data...
Loading historical data...
Loading historical data...
Loading historical data...
Loading historical data...
Loading historical data...
Loading historical data...

Documentation

Showing up to 5 results
|